STARLINK-5373 (55490 NORAD) Tracking and Keplerian Element Data

This shows tracking and keplerian element data for the satellite.

Feedback or suggestion? Click here.




ElementValue
Catalog55490
NameSTARLINK-5373
Epoch Orbit130
Epoch Day84.91667824
Epoch Year2023
RAAN85.939
Inclination43.0004
Eccentricity0.0001447
Argument of Perigee270.3671
Mean Anonmoly341.6205
Mean Motion15.04456024
Decay Rate0.00048649
L11 55490U 23015AT 23084.91667824 .00048649 00000+0 34126-2 0 9992
L22 55490 43.0004 85.9390 0001447 270.3671 341.6205 15.04456024 1308



Live tracking and technical data element details for STARLINK-5373 (NORAD 55490). STARLINK-5373 can be tracked NOW for your location showing map with azimuth and elevation plus other details from your city location.







IsCatalogInMostPopularTable: catalog: 55490, numindb: -1

Insert: records affected: 1


GetName: 55490 STARLINK-5373

Hit Count: inserted at: Tue, 28 Mar 2023 03:14:45 GMT